Weather reports worldwide

Advertisment
Almeria, Spain (8487): temperature & dewpoint: 14.08.2019 06:00:00 - 20.08.2019 06:00:00 (CEST)Almeria, Spain (8487): wind speed: 14.08.2019 06:00:00 - 20.08.2019 06:00:00 (CEST)Almeria, Spain (8487): wind direction: 14.08.2019 06:00:00 - 20.08.2019 06:00:00 (CEST)Almeria, Spain (8487): reduced air pressure: 14.08.2019 06:00:00 - 20.08.2019 06:00:00 (CEST)Almeria, Spain (8487): visibility: 14.08.2019 06:00:00 - 20.08.2019 06:00:00 (CEST)
Date & Time tt [°C] td [°C] ff [km/h] ff [kn] dd ppp [hPa] vv [km]
20.08.2019 06:00:00 24,3 20,2 13 7 NNW 1013,3 -
20.08.2019 05:00:00 24,1 21,6 8 4 N 1013,3 30
20.08.2019 04:00:00 24,4 21,7 8 4 N 1013,8 -
20.08.2019 03:00:00 25,0 21,9 4 2 NNE 1014,1 -
20.08.2019 02:00:00 25,3 22,1 4 2 N 1014,3 -
20.08.2019 01:00:00 25,0 20,9 9 5 NW 1014,4 -
20.08.2019 00:00:00 25,3 22,7 5 3 NW 1014,3 -
19.08.2019 23:00:00 25,9 22,2 8 4 W 1014,0 -
19.08.2019 22:00:00 25,7 22,8 9 5 SSE 1013,0 -
19.08.2019 21:00:00 26,4 23,1 8 4 SE 1012,0 -
19.08.2019 20:00:00 27,7 23,0 4 2 SSE 1011,9 35
19.08.2019 19:00:00 28,1 23,2 8 4 SSE 1012,0 -
19.08.2019 18:00:00 28,4 23,4 9 5 SSE 1012,2 -
19.08.2019 17:00:00 28,6 23,4 13 7 S 1012,4 35
19.08.2019 16:00:00 28,8 23,9 18 10 SSW 1012,6 -
19.08.2019 15:00:00 29,5 23,2 13 7 SSW 1012,9 -
19.08.2019 14:00:00 28,8 23,3 13 7 SSW 1013,2 30
19.08.2019 13:00:00 28,4 23,5 11 6 S 1013,7 -
19.08.2019 12:00:00 27,7 23,1 13 7 SSW 1013,8 -
19.08.2019 11:00:00 27,2 22,6 9 5 S 1013,4 30
19.08.2019 10:00:00 26,1 22,2 8 4 SSW 1012,8 -
19.08.2019 09:00:00 25,4 20,9 4 2 W 1012,5 -
19.08.2019 08:00:00 22,9 21,2 8 4 N 1012,2 15
19.08.2019 07:00:00 22,9 21,2 9 5 NNE 1012,1 -
19.08.2019 06:00:00 23,3 21,0 8 4 N 1011,9 -
19.08.2019 05:00:00 23,6 21,5 5 3 N 1012,0 15
19.08.2019 04:00:00 24,0 22,1 4 2 ENE 1012,1 -
19.08.2019 03:00:00 24,3 22,5 0 0 N 1012,5 -
19.08.2019 02:00:00 24,7 22,8 11 6 SW 1012,9 -
19.08.2019 01:00:00 24,9 22,4 8 4 SSW 1013,0 -
19.08.2019 00:00:00 25,1 21,9 8 4 S 1012,8 -
18.08.2019 23:00:00 25,4 21,3 8 4 SSW 1012,7 -
18.08.2019 22:00:00 25,8 20,4 9 5 SSW 1011,6 -
18.08.2019 21:00:00 26,4 22,6 13 7 SSW 1011,2 -
18.08.2019 20:00:00 27,6 23,2 13 7 SSW 1010,9 30
18.08.2019 19:00:00 28,6 23,1 16 9 SW 1011,2 -
18.08.2019 18:00:00 28,9 22,9 13 7 SSW 1011,5 -
18.08.2019 17:00:00 29,3 23,4 15 8 SSW 1011,8 30
18.08.2019 16:00:00 28,8 23,6 13 7 S 1012,4 40
18.08.2019 15:00:00 28,9 23,6 13 7 S 1012,8 -
18.08.2019 14:00:00 27,9 23,3 22 12 SW 1013,3 20
18.08.2019 13:00:00 27,5 23,0 26 14 SW 1013,7 -
18.08.2019 12:00:00 28,2 23,8 15 8 SSW 1013,6 -
18.08.2019 11:00:00 28,5 22,5 9 5 S 1013,3 25
18.08.2019 10:00:00 27,6 22,8 9 5 SW 1013,0 -
18.08.2019 09:00:00 26,3 22,5 18 10 SSW 1012,7 -
18.08.2019 08:00:00 25,8 11,5 9 5 N 1011,1 40
18.08.2019 07:00:00 24,2 13,4 11 6 N 1010,8 -
18.08.2019 06:00:00 24,3 17,1 13 7 NW 1010,8 -
18.08.2019 05:00:00 24,2 21,1 8 4 N 1011,3 40
18.08.2019 04:00:00 24,5 20,8 2 1 SW 1012,1 -
18.08.2019 03:00:00 24,2 21,9 9 5 E 1012,6 -
18.08.2019 02:00:00 25,3 23,7 5 3 N 1013,0 -
18.08.2019 01:00:00 25,7 24,1 2 1 NNW 1013,5 -
18.08.2019 00:00:00 26,0 24,2 9 5 SW 1013,8 -
17.08.2019 23:00:00 26,1 23,8 4 2 WNW 1013,0 -
17.08.2019 22:00:00 26,2 24,3 0 0 N 1012,5 -
17.08.2019 21:00:00 26,8 24,5 4 2 SW 1011,9 -
17.08.2019 20:00:00 27,8 24,5 8 4 SSW 1012,1 45
17.08.2019 19:00:00 28,5 24,6 13 7 SSW 1012,7 -
17.08.2019 18:00:00 28,8 24,6 13 7 SSW 1013,2 -
17.08.2019 17:00:00 29,5 24,7 15 8 SSW 1013,5 45
17.08.2019 16:00:00 29,2 24,5 13 7 SSW 1014,1 -
17.08.2019 15:00:00 29,2 24,5 13 7 SSW 1014,9 -
17.08.2019 14:00:00 29,7 24,6 15 8 SSW 1015,3 40
17.08.2019 13:00:00 28,5 24,1 13 7 S 1015,6 -
17.08.2019 12:00:00 27,7 23,9 11 6 S 1015,9 -
17.08.2019 11:00:00 27,3 23,8 11 6 SSW 1016,2 40
17.08.2019 10:00:00 27,7 21,1 9 5 SSE 1016,0 -
17.08.2019 09:00:00 26,4 21,9 4 2 S 1015,5 -
17.08.2019 08:00:00 23,3 20,6 8 4 N 1015,3 45
17.08.2019 07:00:00 23,3 21,0 5 3 E 1015,0 -
17.08.2019 06:00:00 23,8 21,5 2 1 WNW 1014,9 -
17.08.2019 05:00:00 24,4 21,9 8 4 N 1015,1 40
17.08.2019 04:00:00 24,5 22,0 8 4 NNE 1015,5 -
17.08.2019 03:00:00 24,7 22,1 4 2 ENE 1016,0 -
17.08.2019 02:00:00 25,3 23,5 4 2 NNW 1016,4 -
17.08.2019 01:00:00 25,5 23,7 8 4 WSW 1016,6 -
17.08.2019 00:00:00 25,7 23,7 8 4 WSW 1016,4 -
16.08.2019 23:00:00 26,0 23,7 5 3 W 1016,2 -
16.08.2019 22:00:00 26,5 23,5 9 5 WSW 1015,7 -
16.08.2019 21:00:00 27,0 23,9 9 5 SW 1015,2 -
16.08.2019 20:00:00 28,1 23,9 11 6 SW 1014,9 45
16.08.2019 19:00:00 29,2 23,1 11 6 SSW 1015,0 -
16.08.2019 18:00:00 30,0 20,8 11 6 SW 1015,4 -
16.08.2019 17:00:00 30,6 24,0 15 8 SSW 1015,6 45
16.08.2019 16:00:00 31,1 23,9 13 7 S 1016,0 -
16.08.2019 15:00:00 32,2 20,2 11 6 SSW 1016,3 -
16.08.2019 14:00:00 31,0 22,8 13 7 SSW 1016,6 45
16.08.2019 13:00:00 30,3 20,2 18 10 SW 1017,0 -
16.08.2019 12:00:00 29,9 19,6 15 8 S 1017,4 -
16.08.2019 11:00:00 32,8 11,2 18 10 E 1017,3 -
16.08.2019 10:00:00 29,7 14,3 8 4 NNW 1017,5 -
16.08.2019 09:00:00 26,9 15,3 4 2 WNW 1017,5 -
16.08.2019 08:00:00 24,8 14,6 11 6 NNE 1017,1 60
16.08.2019 07:00:00 23,3 15,4 2 1 N 1016,7 -
16.08.2019 06:00:00 23,4 15,4 0 0 N 1016,5 -
16.08.2019 05:00:00 24,1 15,0 8 4 N 1016,4 30
16.08.2019 04:00:00 24,6 16,1 5 3 N 1016,4 -
16.08.2019 03:00:00 24,9 15,8 9 5 NNW 1016,6 -
16.08.2019 02:00:00 26,0 18,4 8 4 NNE 1016,9 -
16.08.2019 01:00:00 26,7 15,7 8 4 NNE 1017,0 -
16.08.2019 00:00:00 27,3 16,2 11 6 NE 1017,0 -
15.08.2019 23:00:00 27,9 15,2 8 4 ENE 1017,0 -
15.08.2019 22:00:00 28,5 15,4 4 2 NW 1016,3 -
15.08.2019 21:00:00 29,1 16,3 9 5 W 1016,0 -
15.08.2019 20:00:00 29,8 18,4 9 5 SW 1015,7 50
15.08.2019 19:00:00 30,6 19,6 11 6 SW 1015,8 -
15.08.2019 18:00:00 31,3 19,4 11 6 SSW 1015,8 -
15.08.2019 17:00:00 31,4 19,9 16 9 SSW 1016,1 45
15.08.2019 16:00:00 32,0 20,9 15 8 S 1016,4 -
15.08.2019 15:00:00 32,1 21,2 16 9 SSE 1016,6 -
15.08.2019 14:00:00 30,4 23,1 15 8 SSW 1017,0 45
15.08.2019 13:00:00 29,5 22,8 15 8 SSW 1017,5 -
15.08.2019 12:00:00 29,5 22,2 15 8 S 1017,6 -
15.08.2019 11:00:00 30,5 19,6 8 4 SSW 1017,6 45
15.08.2019 10:00:00 28,5 20,1 4 2 SW 1017,6 -
15.08.2019 09:00:00 26,9 19,8 0 0 N 1017,5 -
15.08.2019 08:00:00 23,5 20,0 9 5 NNW 1017,3 40
15.08.2019 07:00:00 22,7 19,7 5 3 ENE 1017,2 -
15.08.2019 06:00:00 23,6 21,1 5 3 NNW 1017,0 -
15.08.2019 05:00:00 23,6 21,5 5 3 N 1016,9 25
15.08.2019 04:00:00 23,6 21,1 4 2 ESE 1017,2 -
15.08.2019 03:00:00 23,9 21,0 8 4 E 1017,3 -
15.08.2019 02:00:00 24,7 21,8 4 2 NNE 1017,6 -
15.08.2019 01:00:00 25,2 22,5 5 3 W 1017,8 -
15.08.2019 00:00:00 25,5 22,0 8 4 SW 1017,8 -
14.08.2019 23:00:00 25,8 22,1 4 2 NW 1017,8 -
14.08.2019 22:00:00 25,8 22,6 4 2 W 1017,1 -
14.08.2019 21:00:00 25,8 22,9 9 5 WSW 1016,7 -
14.08.2019 20:00:00 26,9 22,9 9 5 SSW 1016,5 45
14.08.2019 19:00:00 27,6 23,0 11 6 SSW 1016,8 -
14.08.2019 18:00:00 28,1 23,2 15 8 SSW 1016,9 -
14.08.2019 17:00:00 29,5 23,3 15 8 S 1017,1 45
14.08.2019 16:00:00 29,6 23,3 16 9 S 1017,5 -
14.08.2019 15:00:00 29,6 23,4 18 10 SSE 1018,1 -
14.08.2019 14:00:00 29,9 23,1 18 10 SSE 1018,6 35
14.08.2019 13:00:00 29,9 23,1 18 10 SSE 1019,0 -
14.08.2019 12:00:00 29,4 22,4 15 8 S 1019,1 -
14.08.2019 11:00:00 29,8 20,6 13 7 E 1019,1 35
14.08.2019 10:00:00 28,3 20,8 11 6 E 1019,3 -
14.08.2019 09:00:00 26,4 20,9 9 5 NNE 1019,3 -
14.08.2019 08:00:00 23,8 20,3 8 4 NNE 1019,0 35
14.08.2019 07:00:00 23,5 20,0 5 3 N 1018,7 -
14.08.2019 06:00:00 23,5 20,0 4 2 E 1018,3 -

tt = temperature
td = dewpoint
ff = wind speed
dd = wind direction
ppp = reduced air pressure
vv = visibility

Next stations